GW4774 Weather Reports


time (UTC)temp
F
wind
direction
speed
knots
gust
knots
rain 1hr
in
rain 24hr
in
rain mn
in
humidity
%
barometer
mb
20260504013005 45 229 0.0 0.0 0.00 0.00 0.00 69 1012.2
20260504011506 47 229 0.0 0.0 0.00 0.00 0.00 67 1012.2
20260504010018 48 229 0.0 0.0 0.00 0.00 0.00 64 1012.3
20260504004517 50 229 0.0 0.0 0.00 0.00 0.00 59 1012.2
20260504003004 52 134 0.0 0.0 0.00 0.00 0.00 57 1012.2
20260504001519 55 146 0.0 0.9 0.00 0.00 0.00 52 1012.2
20260504000017 57 303 0.0 0.9 0.00 0.00 0.00 50 1012.2
20260503234520 56 239 0.0 0.9 0.00 0.00 0.00 51 1012.3
20260503233018 56 215 0.0 4.3 0.00 0.00 0.00 48 1012.4
20260503231522 57 148 0.9 3.5 0.00 0.00 0.00 46 1012.4
20260503230008 58 79 0.9 3.5 0.00 0.00 0.00 46 1012.4
20260503224510 58 274 1.7 5.2 0.00 0.00 0.00 46 1012.5
20260503223013 58 247 0.9 6.1 0.00 0.00 0.00 44 1012.6
20260503221518 59 188 0.9 4.3 0.00 0.00 0.00 45 1012.7
20260503220024 60 227 0.0 6.1 0.00 0.00 0.00 44 1012.7
20260503214508 61 280 0.9 5.2 0.00 0.00 0.00 43 1012.7
20260503213011 60 248 0.0 5.2 0.00 0.00 0.00 45 1012.7
20260503211515 60 179 0.9 6.1 0.00 0.00 0.00 43 1012.7
20260503210021 61 284 0.9 6.1 0.00 0.00 0.00 45 1012.8
20260503204528 61 139 1.7 5.2 0.00 0.00 0.00 40 1012.7
20260503203006 61 184 0.9 5.2 0.00 0.00 0.00 46 1012.9
20260503201514 61 231 1.7 7.8 0.00 0.00 0.00 42 1013.0
20260503200018 62 184 1.7 6.1 0.00 0.00 0.00 40 1013.2
20260503194529 62 203 1.7 6.1 0.00 0.00 0.00 41 1013.5
20260503193027 62 220 0.9 3.5 0.00 0.00 0.00 41 1013.8
20260503191509 63 303 1.7 10.4 0.00 0.00 0.00 40 1013.9
20260503190035 64 114 1.7 6.1 0.00 0.00 0.00 41 1014.1
20260503184522 63 219 1.7 5.2 0.00 0.00 0.00 41 1014.4
20260503183025 63 347 1.7 3.5 0.00 0.00 0.00 45 1014.5
20260503181524 62 98 1.7 8.7 0.00 0.00 0.00 38 1014.6
20260503180038 63 266 1.7 5.2 0.00 0.00 0.00 41 1014.7
20260503174517 62 243 1.7 5.2 0.00 0.00 0.00 45 1015.0
20260503173028 62 136 1.7 5.2 0.00 0.00 0.00 47 1015.2
20260503171534 59 199 1.7 7.8 0.00 0.00 0.00 46 1015.5
20260503081535 30 248 0.0 0.0 0.00 0.00 0.00 91 1015.9
20260503071517 32 248 0.0 0.0 0.00 0.01 0.00 91 1015.9
20260503054525 35 248 0.0 0.0 0.00 0.01 0.00 86 1016.2
20260503053024 36 248 0.0 0.0 0.00 0.01 0.00 87 1016.1
20260503051510 37 248 0.0 0.0 0.00 0.01 0.00 87 1016.1
20260503050011 37 248 0.0 0.0 0.00 0.01 0.00 87 1016.3
20260503044517 37 248 0.0 0.0 0.00 0.01 0.00 87 1016.2
20260503043021 37 248 0.0 0.0 0.00 0.01 0.00 87 1016.3
20260503040008 37 248 0.0 0.0 0.00 0.01 0.00 87 1016.5
20260503034512 37 248 0.0 0.0 0.00 0.01 0.01 87 1016.5
20260503033025 37 248 0.0 0.0 0.00 0.01 0.01 87 1016.5
20260503031528 37 248 0.0 0.0 0.00 0.01 0.01 86 1016.6
20260503030026 36 248 0.0 0.0 0.00 0.01 0.01 85 1016.6
20260503024528 36 248 0.0 0.0 0.00 0.01 0.01 85 1016.7
20260503021525 37 248 0.0 0.0 0.00 0.01 0.01 83 1016.8
20260503020024 36 248 0.0 0.0 0.00 0.01 0.01 83 1016.7